GSAT0204 (GALILEO 8) (40545 NORAD) Tracking and Keplerian Element Data

This shows tracking and keplerian element data for the satellite.

Feedback or suggestion? Click here.




ElementValue
Catalog40545
NameGSAT0204 (GALILEO 8)
Epoch Orbit264
Epoch Day257.59024657
Epoch Year2021
RAAN28.9327
Inclination56.6841
Eccentricity0.0003483
Argument of Perigee199.0462
Mean Anonmoly160.9404
Mean Motion1.70475577
Decay Rate-7.7E-07
L11 40545U 15017B 21257.59024657 -.00000077 00000-0 00000-0 0 9992
L22 40545 56.6841 28.9327 0003483 199.0462 160.9404 1.70475577 2649

Live tracking and technical data element details for GSAT0204 (GALILEO 8) (NORAD 40545). GSAT0204 (GALILEO 8) can be tracked NOW for your location showing map with azimuth and elevation plus other details from your city location.

Track the satellite on the map from your city or location and see movement details for azimuth, elevation, latitude, longitude, range, height, and movement on the map or in text.







IsCatalogInMostPopularTable: catalog: 40545, numindb: 545
Update: records affected: 1



GetName: 40545 GSAT0204 (GALILEO 8)

Hit Count: updated at: Sun, 26 Sep 2021 01:26:17 GMT